• In Denmark
  • List of Countries
  • For 7 days
  • Water Temperature
  • Satellite Maps
  • Weather Map
  • Weather Widgets
  • user-avatar
    Login

    Hourly Weather Sevan

    Today, 20 January, Saturday

    Time Temperature Precipitation Wind Pressure Humidity
    00:00 -1°C° 0 mm 2 mps 634 mmHg 81%
    01:00 -1°C° 0.1 mm 2 mps 635 mmHg 82%
    02:00 -1°C° 0.1 mm 2 mps 635 mmHg 84%
    03:00 0°C° 0 mm 3 mps 635 mmHg 85%
    04:00 0°C° 0.7 mm 3 mps 636 mmHg 86%
    05:00 +1°C° 0.7 mm 2 mps 636 mmHg 87%
    06:00 -1°C° 0.7 mm 2 mps 637 mmHg 87%
    07:00 +1°C° 0.4 mm 2 mps 637 mmHg 86%
    08:00 +1°C° 0.4 mm 2 mps 638 mmHg 85%
    09:00 +1°C° 0.4 mm 2 mps 638 mmHg 84%
    10:00 +1°C° 0.1 mm 2 mps 639 mmHg 81%
    11:00 +3°C° 0.1 mm 1 mps 639 mmHg 78%
    12:00 +4°C° 0.1 mm 1 mps 639 mmHg 76%
    13:00 +4°C° 0 mm 1 mps 639 mmHg 75%
    14:00 +4°C° 0 mm 1 mps 639 mmHg 74%
    15:00 +4°C° 0 mm 1 mps 639 mmHg 74%
    16:00 +3°C° 0 mm 1 mps 640 mmHg 75%
    17:00 +1°C° 0 mm 1 mps 640 mmHg 76%
    18:00 0°C° 0 mm 1 mps 640 mmHg 77%
    19:00 -1°C° 0 mm 1 mps 640 mmHg 77%
    20:00 -1°C° 0 mm 1 mps 640 mmHg 77%
    21:00 -2°C° 0 mm 1 mps 641 mmHg 76%
    22:00 -2°C° 0 mm 1 mps 641 mmHg 76%
    23:00 -2°C° 0 mm 1 mps 641 mmHg 77%

    Tomorrow, 21 January, Sunday

    Time Temperature Precipitation Wind Pressure Humidity
    00:00 -2°C° 0 mm 1 mps 641 mmHg 77%
    01:00 -4°C° 0 mm 2 mps 641 mmHg 76%
    02:00 -4°C° 0 mm 2 mps 641 mmHg 76%
    03:00 -4°C° 0 mm 2 mps 641 mmHg 76%
    04:00 -4°C° 0 mm 2 mps 641 mmHg 75%
    05:00 -5°C° 0 mm 2 mps 641 mmHg 75%
    06:00 -5°C° 0 mm 2 mps 641 mmHg 75%
    07:00 -4°C° 0 mm 2 mps 642 mmHg 74%
    08:00 -3°C° 0 mm 2 mps 642 mmHg 72%
    09:00 -2°C° 0 mm 2 mps 642 mmHg 71%
    10:00 -1°C° 0 mm 2 mps 642 mmHg 69%
    11:00 0°C° 0 mm 3 mps 642 mmHg 67%
    12:00 +1°C° 0 mm 3 mps 642 mmHg 66%
    13:00 +2°C° 0 mm 3 mps 642 mmHg 65%
    14:00 +3°C° 0 mm 2 mps 641 mmHg 65%
    15:00 +3°C° 0 mm 2 mps 641 mmHg 65%
    16:00 +1°C° 0 mm 2 mps 641 mmHg 65%
    17:00 -1°C° 0 mm 2 mps 641 mmHg 64%
    18:00 -3°C° 0 mm 2 mps 641 mmHg 64%
    19:00 -3°C° 0 mm 2 mps 641 mmHg 63%
    20:00 -3°C° 0 mm 2 mps 641 mmHg 62%
    21:00 -3°C° 0 mm 2 mps 641 mmHg 61%
    22:00 -3°C° 0 mm 2 mps 641 mmHg 61%
    23:00 -3°C° 0 mm 2 mps 640 mmHg 61%

    Day after tomorrow, 22 January, Monday

    Time Temperature Precipitation Wind Pressure Humidity
    00:00 -3°C° 0 mm 2 mps 640 mmHg 61%
    01:00 -3°C° 0 mm 2 mps 640 mmHg 61%
    02:00 -3°C° 0 mm 2 mps 640 mmHg 60%
    03:00 -3°C° 0 mm 2 mps 639 mmHg 60%
    04:00 -3°C° 0 mm 2 mps 639 mmHg 59%
    05:00 -3°C° 0 mm 2 mps 639 mmHg 59%
    06:00 -2°C° 0 mm 2 mps 638 mmHg 58%
    07:00 -2°C° 0 mm 2 mps 638 mmHg 58%
    08:00 -1°C° 0 mm 2 mps 638 mmHg 59%
    09:00 -1°C° 0 mm 2 mps 638 mmHg 59%
    10:00 +2°C° 0 mm 2 mps 638 mmHg 58%
    11:00 +3°C° 0 mm 2 mps 638 mmHg 57%
    12:00 +4°C° 0 mm 2 mps 638 mmHg 57%
    13:00 +4°C° 0 mm 2 mps 637 mmHg 57%
    14:00 +4°C° 0 mm 2 mps 637 mmHg 58%
    15:00 +4°C° 0 mm 2 mps 637 mmHg 58%
    16:00 +2°C° 0 mm 2 mps 636 mmHg 56%
    17:00 +1°C° 0 mm 2 mps 636 mmHg 54%
    18:00 -2°C° 0 mm 2 mps 636 mmHg 52%
    19:00 -2°C° 0 mm 2 mps 636 mmHg 52%
    20:00 -3°C° 0 mm 2 mps 636 mmHg 51%
    21:00 -3°C° 0 mm 2 mps 636 mmHg 51%
    22:00 -3°C° 0 mm 2 mps 636 mmHg 53%
    23:00 -3°C° 0 mm 2 mps 636 mmHg 54%

    23 January, Tuesday

    Time Temperature Precipitation Wind Pressure Humidity
    00:00 -4°C° 0 mm 2 mps 635 mmHg 56%
    01:00 -4°C° 0 mm 2 mps 635 mmHg 56%
    02:00 -4°C° 0 mm 2 mps 635 mmHg 57%
    03:00 -4°C° 0 mm 2 mps 635 mmHg 57%
    04:00 -4°C° 0 mm 2 mps 635 mmHg 57%
    05:00 -4°C° 0 mm 2 mps 635 mmHg 57%
    06:00 -5°C° 0 mm 2 mps 635 mmHg 58%
    07:00 -4°C° 0 mm 2 mps 635 mmHg 58%
    08:00 -3°C° 0 mm 2 mps 635 mmHg 59%
    09:00 -2°C° 0 mm 2 mps 636 mmHg 59%
    10:00 -1°C° 0 mm 2 mps 635 mmHg 59%
    11:00 +1°C° 0 mm 2 mps 635 mmHg 58%
    12:00 +2°C° 0 mm 3 mps 635 mmHg 57%
    13:00 +2°C° 0 mm 3 mps 635 mmHg 57%
    14:00 +3°C° 0 mm 2 mps 634 mmHg 58%
    15:00 +3°C° 0 mm 2 mps 634 mmHg 59%
    16:00 +2°C° 0 mm 2 mps 634 mmHg 59%
    17:00 +1°C° 0 mm 2 mps 634 mmHg 59%
    18:00 -1°C° 0 mm 2 mps 634 mmHg 59%
    19:00 -1°C° 0 mm 2 mps 634 mmHg 59%
    20:00 -1°C° 0 mm 2 mps 634 mmHg 59%
    21:00 +1°C° 0 mm 1 mps 635 mmHg 60%
    22:00 +1°C° 0 mm 1 mps 634 mmHg 61%
    23:00 +1°C° 0 mm 1 mps 634 mmHg 62%

    24 January, Wednesday

    Time Temperature Precipitation Wind Pressure Humidity
    00:00 0°C° 0 mm 1 mps 634 mmHg 63%
    01:00 0°C° 0 mm 1 mps 634 mmHg 64%
    02:00 0°C° 0 mm 1 mps 635 mmHg 64%
    03:00 -1°C° 0 mm 1 mps 635 mmHg 65%
    04:00 -1°C° 0 mm 1 mps 635 mmHg 66%
    05:00 -2°C° 0 mm 1 mps 635 mmHg 67%
    06:00 -2°C° 0 mm 1 mps 635 mmHg 68%
    07:00 -2°C° 0 mm 1 mps 635 mmHg 68%
    08:00 -1°C° 0 mm 1 mps 636 mmHg 69%
    09:00 0°C° 0 mm 1 mps 636 mmHg 69%
    10:00 0°C° 0.1 mm 1 mps 637 mmHg 69%
    11:00 +1°C° 0.1 mm 1 mps 637 mmHg 70%
    12:00 +2°C° 0.1 mm 1 mps 637 mmHg 70%
    13:00 +2°C° 0.1 mm 1 mps 637 mmHg 70%
    14:00 +2°C° 0.1 mm 1 mps 637 mmHg 70%
    15:00 +2°C° 0.1 mm 1 mps 637 mmHg 71%
    16:00 +1°C° 0 mm 1 mps 637 mmHg 72%
    17:00 0°C° 0 mm 1 mps 638 mmHg 73%
    18:00 -1°C° 0 mm 1 mps 638 mmHg 75%
    19:00 -2°C° 0 mm 1 mps 638 mmHg 74%
    20:00 -2°C° 0 mm 1 mps 639 mmHg 73%
    21:00 -2°C° 0 mm 1 mps 639 mmHg 72%
    22:00 -2°C° 0.1 mm 1 mps 639 mmHg 72%
    23:00 -2°C° 0.1 mm 1 mps 639 mmHg 72%

    25 January, Thursday

    Time Temperature Precipitation Wind Pressure Humidity
    00:00 -2°C° 0.1 mm 1 mps 640 mmHg 72%
    01:00 -2°C° 0.1 mm 1 mps 640 mmHg 72%
    02:00 -2°C° 0.1 mm 1 mps 640 mmHg 72%
    03:00 -2°C° 0.1 mm 1 mps 640 mmHg 73%
    04:00 -2°C° 0.1 mm 1 mps 640 mmHg 73%
    05:00 -2°C° 0.1 mm 1 mps 641 mmHg 74%
    06:00 -2°C° 0.1 mm 1 mps 641 mmHg 74%
    07:00 -2°C° 0 mm 1 mps 641 mmHg 73%
    08:00 -1°C° 0 mm 1 mps 642 mmHg 72%
    09:00 0°C° 0 mm 1 mps 643 mmHg 71%
    10:00 +1°C° 0 mm 1 mps 643 mmHg 70%
    11:00 +2°C° 0 mm 1 mps 643 mmHg 68%
    12:00 +3°C° 0 mm 1 mps 643 mmHg 67%
    13:00 +3°C° 0 mm 1 mps 643 mmHg 68%
    14:00 +3°C° 0 mm 1 mps 643 mmHg 69%
    15:00 +3°C° 0 mm 1 mps 642 mmHg 71%
    16:00 +2°C° 0 mm 1 mps 642 mmHg 73%
    17:00 +1°C° 0 mm 1 mps 642 mmHg 75%
    18:00 0°C° 0 mm 1 mps 643 mmHg 77%
    19:00 0°C° 0 mm 1 mps 643 mmHg 78%
    20:00 0°C° 0 mm 1 mps 643 mmHg 79%
    21:00 0°C° 0 mm 1 mps 643 mmHg 79%
    22:00 -1°C° 0 mm 1 mps 643 mmHg 80%
    23:00 -1°C° 0 mm 1 mps 643 mmHg 80%
    Show more